Location: Unspecified
(0.0000°N, 0.0000°E)
Time: 19:47:41
(UTC+00:00)

Envisat - Pass Details

Date: 01 June 2023
Orbit: 763 x 765 km, 98.2° (Epoch: 05 June)

Event Time Altitude Azimuth Distance (km) Brightness Sun altitude
Rises 03:54:25 0° 358° (N) 3,210 6.5 -28.4°
Reaches altitude 10° 03:56:49 10° 351° (N) 2,288 5.6 -27.8°
Enters shadow 03:59:02 24° 335° (NNW) 1,534 4.5 -27.3°
